Regional Weather Roundup
Issued by NWS

Home | Current Version | Previous Version | Graphics & Text | Print | Product List | Glossary On
Versions: 1 2 3 4 5 6 7 8 9 10 11 12 13 14 15 16 17 18 19 20 21 22 23 24 25 26 27 28 29 30 31 32 33 34 35 36 37 38 39 40 41 42 43 44 45 46 47 48 49 50
000
ASUS43 KFSD 261910
RWRSD

WEATHER ROUNDUP FOR SOUTH DAKOTA
NATIONAL WEATHER SERVICE SIOUX FALLS SD
200 PM CDT MON SEP 26 2016

NOTE: "FAIR" INDICATES FEW OR NO CLOUDS BELOW 12,000 FEET WITH NO
SIGNIFICANT WEATHER AND/OR OBSTRUCTIONS TO VISIBILITY.


SDZ001>005-009-010-012>017-262000-
NORTHWEST AND NORTH CENTRAL SOUTH DAKOTA

CITY           SKY/WX    TMP DP  RH WIND       PRES   REMARKS
BUFFALO          N/A     66  43  43 NW22      30.16F
MOBRIDGE       SUNNY     71  35  26 NW18G28   30.11F
$$

SDZ012>016-024>037-041>051-057-063-072>074-262000-
SOUTHWEST AND SOUTH CENTRAL SOUTH DAKOTA

CITY           SKY/WX    TMP DP  RH WIND       PRES   REMARKS
RAPID CTY ARPT SUNNY     73  40  30 N23G30    30.23F
PIERRE         SUNNY     70  38  31 NW17G24   30.16F
CUSTER         SUNNY     64  38  38 NW14G22   30.33F
ELLSWORTH AFB  SUNNY     72  40  32 NW23G30   30.23F
PHILIP         SUNNY     74  38  27 NW16G23   30.19F
PINE RIDGE     SUNNY     73  39  29 W14G23    30.25F
WINNER         FAIR      73  38  27 NW9G22    30.19F
$$

SDZ004>011-016>023-039-040-262000-
NORTHEAST SOUTH DAKOTA

CITY           SKY/WX    TMP DP  RH WIND       PRES   REMARKS
ABERDEEN       SUNNY     70  30  22 NW22G31   30.09F
WATERTOWN      SUNNY     65  33  30 NW20G28   30.07F
BROOKINGS      SUNNY     65  33  30 NW18G30   30.07F
SISSETON         N/A     69  32  25 NW22G36   30.00F
$$

SDZ017-020-022-023-036>040-048>070-262000-
SOUTHEAST SOUTH DAKOTA

CITY           SKY/WX    TMP DP  RH WIND       PRES   REMARKS
SIOUX FALLS    MOSUNNY   69  41  36 NW20G33   30.10F
HURON          SUNNY     73  33  23 NW25G36   30.09F
CHAMBERLAIN    SUNNY     73  40  29 NW20      30.16F
MITCHELL       MOSUNNY   73  35  25 NW15G25   30.12F
YANKTON        MOSUNNY   72  39  30 W22       30.12F
$$

ABBREVIATIONS USED IN REMARKS
   TC - TEMPERATURE IN CELSIUS
  WCI - WIND CHILL INDEX
   HX - HEAT INDEX
  VSB - VISIBILITY





USA.gov is the U.S. government's official web portal to all federal, state and local government web resources and services.